| time (UTC) | temp C | wind direction | speed KPH | gust KPH | rain 1hr cm | rain 24hr cm | rain mn cm | humidity % | barometer mb |
| 20260901030217 | 21 | 283 | 6.4 | 8.0 | 0.00 | 0.00 | 0.00 | 81 | 1012.2 |
| 20260901025717 | 21 | 260 | 6.4 | 11.3 | 0.00 | 0.00 | 0.00 | 81 | 1012.1 |
| 20260901025237 | 21 | 283 | 8.0 | 16.1 | 0.00 | 0.00 | 0.00 | 81 | 1012.1 |
| 20260901024737 | 21 | 283 | 6.4 | 9.7 | 0.00 | 0.00 | 0.00 | 80 | 1012.0 |
| 20260901024217 | 21 | 260 | 8.0 | 12.9 | 0.00 | 0.00 | 0.00 | 80 | 1012.0 |
| 20260901023717 | 21 | 305 | 9.7 | 16.1 | 0.00 | 0.00 | 0.00 | 79 | 1012.0 |
| 20260901023217 | 21 | 283 | 6.4 | 11.3 | 0.00 | 0.00 | 0.00 | 79 | 1011.9 |
| 20260901022717 | 21 | 283 | 6.4 | 8.0 | 0.00 | 0.00 | 0.00 | 78 | 1011.9 |
| 20260901022217 | 21 | 283 | 8.0 | 12.9 | 0.00 | 0.00 | 0.00 | 78 | 1012.0 |
| 20260901021717 | 22 | 260 | 11.3 | 16.1 | 0.00 | 0.00 | 0.00 | 77 | 1012.0 |
| 20260901021217 | 22 | 260 | 9.7 | 16.1 | 0.00 | 0.00 | 0.00 | 77 | 1012.0 |
| 20260901020717 | 22 | 283 | 9.7 | 16.1 | 0.00 | 0.00 | 0.00 | 76 | 1012.1 |
| 20260901020217 | 22 | 283 | 6.4 | 8.0 | 0.00 | 0.00 | 0.00 | 75 | 1012.1 |
| 20260901015717 | 22 | 305 | 8.0 | 14.5 | 0.00 | 0.00 | 0.00 | 75 | 1012.0 |
| 20260901015237 | 22 | 260 | 6.4 | 9.7 | 0.00 | 0.00 | 0.00 | 74 | 1011.9 |
| 20260901014738 | 22 | 260 | 6.4 | 11.3 | 0.00 | 0.00 | 0.00 | 74 | 1011.9 |
| 20260901014217 | 23 | 260 | 11.3 | 16.1 | 0.00 | 0.00 | 0.00 | 73 | 1011.9 |
| 20260901013717 | 23 | 283 | 9.7 | 14.5 | 0.00 | 0.00 | 0.00 | 72 | 1011.9 |
| 20260901013237 | 23 | 283 | 8.0 | 11.3 | 0.00 | 0.00 | 0.00 | 71 | 1011.8 |
| 20260901012717 | 23 | 283 | 9.7 | 14.5 | 0.00 | 0.00 | 0.00 | 71 | 1011.9 |
| 20260901012217 | 23 | 260 | 12.9 | 16.1 | 0.00 | 0.00 | 0.00 | 71 | 1011.8 |
| 20260901011717 | 23 | 283 | 11.3 | 16.1 | 0.00 | 0.00 | 0.00 | 69 | 1011.8 |
| 20260901011217 | 23 | 283 | 14.5 | 22.5 | 0.00 | 0.00 | 0.00 | 68 | 1011.8 |
| 20260901010717 | 24 | 283 | 11.3 | 17.7 | 0.00 | 0.00 | 0.00 | 66 | 1011.9 |
| 20260901010237 | 24 | 305 | 9.7 | 16.1 | 0.00 | 0.00 | 0.00 | 66 | 1011.9 |
| 20260901005716 | 25 | 283 | 11.3 | 14.5 | 0.00 | 0.00 | 0.00 | 65 | 1011.9 |
| 20260901005237 | 25 | 260 | 12.9 | 19.3 | 0.00 | 0.00 | 0.00 | 65 | 1011.9 |
| 20260901004717 | 25 | 283 | 12.9 | 19.3 | 0.00 | 0.00 | 0.00 | 63 | 1011.9 |
| 20260901004217 | 25 | 260 | 8.0 | 11.3 | 0.00 | 0.00 | 0.00 | 63 | 1011.9 |
| 20260901003717 | 25 | 260 | 9.7 | 16.1 | 0.00 | 0.00 | 0.00 | 63 | 1011.9 |
| 20260901003237 | 25 | 260 | 11.3 | 16.1 | 0.00 | 0.00 | 0.00 | 63 | 1012.0 |
| 20260901002757 | 25 | 260 | 12.9 | 17.7 | 0.00 | 0.00 | 0.00 | 61 | 1011.9 |
| 20260901002217 | 25 | 260 | 11.3 | 17.7 | 0.00 | 0.00 | 0.00 | 64 | 1011.9 |
| 20260901001716 | 26 | 283 | 11.3 | 16.1 | 0.00 | 0.00 | 0.00 | 64 | 1011.9 |
| 20260901001338 | 26 | 283 | 11.3 | 17.7 | 0.00 | 0.00 | 0.00 | 62 | 1012.0 |
| 20260901000717 | 26 | 283 | 6.4 | 11.3 | 0.00 | 0.00 | 0.00 | 62 | 1012.0 |
| 20260901000218 | 26 | 305 | 9.7 | 17.7 | 0.00 | 0.00 | 0.00 | 61 | 1012.0 |
| 20260831235717 | 26 | 283 | 11.3 | 17.7 | 0.00 | 0.00 | 0.00 | 60 | 1012.0 |
| 20260831235236 | 27 | 283 | 11.3 | 17.7 | 0.00 | 0.00 | 0.00 | 57 | 1012.0 |
| 20260831234717 | 27 | 260 | 8.0 | 12.9 | 0.00 | 0.00 | 0.00 | 57 | 1011.9 |
| 20260831234217 | 27 | 283 | 8.0 | 11.3 | 0.00 | 0.00 | 0.00 | 57 | 1011.9 |
| 20260831233716 | 28 | 260 | 9.7 | 17.7 | 0.00 | 0.00 | 0.00 | 57 | 1011.9 |
| 20260831233216 | 27 | 305 | 8.0 | 14.5 | 0.00 | 0.00 | 0.00 | 57 | 1011.9 |
| 20260831232757 | 27 | 260 | 8.0 | 9.7 | 0.00 | 0.00 | 0.00 | 57 | 1011.9 |
| 20260831232217 | 27 | 283 | 4.8 | 6.4 | 0.00 | 0.00 | 0.00 | 57 | 1011.9 |
| 20260831231736 | 27 | 305 | 4.8 | 8.0 | 0.00 | 0.00 | 0.00 | 58 | 1011.8 |
| 20260831231237 | 27 | 260 | 6.4 | 11.3 | 0.00 | 0.00 | 0.00 | 58 | 1011.8 |
| 20260831230757 | 27 | 283 | 9.7 | 14.5 | 0.00 | 0.00 | 0.00 | 58 | 1011.8 |
| 20260831230237 | 27 | 260 | 8.0 | 9.7 | 0.00 | 0.00 | 0.00 | 58 | 1011.8 |
| 20260831225717 | 27 | 260 | 9.7 | 12.9 | 0.00 | 0.00 | 0.00 | 57 | 1011.9 |
| 20260831225217 | 27 | 283 | 9.7 | 14.5 | 0.00 | 0.00 | 0.00 | 58 | 1011.9 |
| 20260831224737 | 27 | 283 | 11.3 | 16.1 | 0.00 | 0.00 | 0.00 | 57 | 1011.9 |
| 20260831224216 | 28 | 260 | 11.3 | 14.5 | 0.00 | 0.00 | 0.00 | 56 | 1012.0 |
| 20260831223717 | 28 | 260 | 8.0 | 12.9 | 0.00 | 0.00 | 0.00 | 56 | 1012.0 |
| 20260831223236 | 28 | 305 | 8.0 | 11.3 | 0.00 | 0.00 | 0.00 | 55 | 1012.1 |
| 20260831222716 | 28 | 260 | 9.7 | 11.3 | 0.00 | 0.00 | 0.00 | 55 | 1012.1 |
| 20260831222216 | 28 | 238 | 1.6 | 1.6 | 0.00 | 0.00 | 0.00 | 52 | 1012.2 |
| 20260831221717 | 28 | 125 | 3.2 | 4.8 | 0.00 | 0.00 | 0.00 | 53 | 1012.2 |
| 20260831221216 | 29 | 148 | 8.0 | 11.3 | 0.00 | 0.00 | 0.00 | 53 | 1012.2 |
| 20260831220716 | 28 | 238 | 1.6 | 3.2 | 0.00 | 0.00 | 0.00 | 54 | 1012.3 |
| 20260831220216 | 28 | 283 | 4.8 | 6.4 | 0.00 | 0.00 | 0.00 | 55 | 1012.3 |
| 20260831215717 | 28 | 125 | 6.4 | 8.0 | 0.00 | 0.00 | 0.00 | 55 | 1012.3 |
| 20260831215216 | 28 | 148 | 6.4 | 11.3 | 0.00 | 0.00 | 0.00 | 55 | 1012.4 |
| 20260831214717 | 28 | 125 | 6.4 | 11.3 | 0.00 | 0.00 | 0.00 | 56 | 1012.5 |
| 20260831214217 | 28 | 148 | 6.4 | 9.7 | 0.00 | 0.00 | 0.00 | 55 | 1012.5 |
| 20260831213737 | 28 | 148 | 3.2 | 6.4 | 0.00 | 0.00 | 0.00 | 57 | 1012.6 |
| 20260831213216 | 28 | 193 | 8.0 | 14.5 | 0.00 | 0.00 | 0.00 | 57 | 1012.6 |
| 20260831212716 | 28 | 148 | 4.8 | 6.4 | 0.00 | 0.00 | 0.00 | 57 | 1012.7 |
| 20260831212216 | 27 | 125 | 4.8 | 8.0 | 0.00 | 0.00 | 0.00 | 58 | 1012.8 |
| 20260831211717 | 28 | 148 | 6.4 | 12.9 | 0.00 | 0.00 | 0.00 | 58 | 1012.9 |
| 20260831211236 | 28 | 148 | 6.4 | 9.7 | 0.00 | 0.00 | 0.00 | 59 | 1012.8 |
| 20260831210716 | 28 | 148 | 8.0 | 9.7 | 0.00 | 0.00 | 0.00 | 59 | 1012.9 |
| 20260831210216 | 27 | 193 | 8.0 | 11.3 | 0.00 | 0.00 | 0.00 | 59 | 1012.9 |
| 20260831205717 | 28 | 125 | 9.7 | 14.5 | 0.00 | 0.00 | 0.00 | 58 | 1012.8 |
| 20260831205237 | 28 | 170 | 6.4 | 11.3 | 0.00 | 0.00 | 0.00 | 58 | 1012.9 |
| 20260831204716 | 28 | 170 | 8.0 | 12.9 | 0.00 | 0.00 | 0.00 | 60 | 1012.9 |
| 20260831204237 | 27 | 170 | 4.8 | 8.0 | 0.00 | 0.00 | 0.00 | 62 | 1012.9 |
| 20260831203717 | 27 | 215 | 9.7 | 12.9 | 0.00 | 0.00 | 0.00 | 61 | 1012.9 |
| 20260831203216 | 27 | 125 | 6.4 | 11.3 | 0.00 | 0.00 | 0.00 | 61 | 1013.0 |
| 20260831202716 | 27 | 148 | 11.3 | 16.1 | 0.00 | 0.00 | 0.00 | 60 | 1013.0 |
| 20260831202256 | 28 | 148 | 9.7 | 17.7 | 0.00 | 0.00 | 0.00 | 61 | 1013.0 |
| 20260831201717 | 27 | 170 | 9.7 | 12.9 | 0.00 | 0.00 | 0.00 | 62 | 1013.1 |
| 20260831201236 | 27 | 148 | 6.4 | 11.3 | 0.00 | 0.00 | 0.00 | 62 | 1013.1 |
| 20260831200716 | 27 | 215 | 8.0 | 12.9 | 0.00 | 0.00 | 0.00 | 61 | 1013.1 |
| 20260831200216 | 27 | 148 | 4.8 | 9.7 | 0.00 | 0.00 | 0.00 | 62 | 1013.2 |
| 20260831195716 | 27 | 215 | 9.7 | 12.9 | 0.00 | 0.00 | 0.00 | 62 | 1013.2 |
| 20260831195216 | 27 | 170 | 8.0 | 14.5 | 0.00 | 0.00 | 0.00 | 63 | 1013.2 |
| 20260831194716 | 28 | 170 | 11.3 | 12.9 | 0.00 | 0.00 | 0.00 | 62 | 1013.2 |
| 20260831194216 | 27 | 260 | 8.0 | 9.7 | 0.00 | 0.00 | 0.00 | 62 | 1013.2 |
| 20260831193716 | 27 | 148 | 1.6 | 6.4 | 0.00 | 0.00 | 0.00 | 63 | 1013.3 |
| 20260831193216 | 27 | 170 | 8.0 | 12.9 | 0.00 | 0.00 | 0.00 | 62 | 1013.3 |
| 20260831192716 | 27 | 215 | 8.0 | 11.3 | 0.00 | 0.00 | 0.00 | 63 | 1013.3 |
| 20260831192236 | 28 | 170 | 6.4 | 9.7 | 0.00 | 0.00 | 0.00 | 62 | 1013.4 |
| 20260831191716 | 27 | 260 | 4.8 | 6.4 | 0.00 | 0.00 | 0.00 | 63 | 1013.4 |
| 20260831191236 | 27 | 260 | 3.2 | 8.0 | 0.00 | 0.00 | 0.00 | 63 | 1013.4 |
| 20260831190716 | 27 | 238 | 6.4 | 9.7 | 0.00 | 0.00 | 0.00 | 65 | 1013.5 |
| 20260831190216 | 27 | 283 | 3.2 | 6.4 | 0.00 | 0.00 | 0.00 | 64 | 1013.5 |
| 20260831185736 | 27 | 103 | 1.6 | 3.2 | 0.00 | 0.00 | 0.00 | 65 | 1013.5 |
| 20260831185216 | 27 | 238 | 4.8 | 9.7 | 0.00 | 0.00 | 0.00 | 64 | 1013.6 |
| 20260831184736 | 27 | 260 | 6.4 | 11.3 | 0.00 | 0.00 | 0.00 | 65 | 1013.6 |
| 20260831184216 | 27 | 215 | 3.2 | 4.8 | 0.00 | 0.00 | 0.00 | 65 | 1013.6 |
| 20260831183716 | 27 | 125 | 8.0 | 11.3 | 0.00 | 0.00 | 0.00 | 65 | 1013.6 |
| 20260831183216 | 27 | 148 | 6.4 | 12.9 | 0.00 | 0.00 | 0.00 | 65 | 1013.6 |
| 20260831182736 | 27 | 148 | 8.0 | 11.3 | 0.00 | 0.00 | 0.00 | 64 | 1013.6 |
| 20260831182216 | 27 | 215 | 6.4 | 11.3 | 0.00 | 0.00 | 0.00 | 65 | 1013.6 |
| 20260831181716 | 27 | 260 | 4.8 | 6.4 | 0.00 | 0.00 | 0.00 | 64 | 1013.6 |
| 20260831181216 | 27 | 125 | 6.4 | 9.7 | 0.00 | 0.00 | 0.00 | 65 | 1013.5 |
| 20260831180736 | 26 | 238 | 4.8 | 6.4 | 0.00 | 0.00 | 0.00 | 65 | 1013.6 |
| 20260831180216 | 26 | 260 | 1.6 | 3.2 | 0.00 | 0.00 | 0.00 | 67 | 1013.5 |
| 20260831175716 | 26 | 215 | 4.8 | 6.4 | 0.00 | 0.00 | 0.00 | 67 | 1013.6 |
| 20260831175216 | 26 | 328 | 1.6 | 4.8 | 0.00 | 0.00 | 0.00 | 68 | 1013.6 |
| 20260831174737 | 26 | 125 | 4.8 | 8.0 | 0.00 | 0.00 | 0.00 | 68 | 1013.7 |
| 20260831174216 | 26 | 260 | 4.8 | 6.4 | 0.00 | 0.00 | 0.00 | 69 | 1013.7 |
| 20260831173716 | 26 | 260 | 3.2 | 6.4 | 0.00 | 0.00 | 0.00 | 69 | 1013.7 |
| 20260831173216 | 26 | 170 | 3.2 | 4.8 | 0.00 | 0.00 | 0.00 | 69 | 1013.7 |
| 20260831172716 | 26 | 35 | 3.2 | 4.8 | 0.00 | 0.00 | 0.00 | 69 | 1013.7 |
| 20260831172216 | 25 | 260 | 3.2 | 6.4 | 0.00 | 0.00 | 0.00 | 70 | 1013.7 |
| 20260831171716 | 25 | 260 | 4.8 | 9.7 | 0.00 | 0.00 | 0.00 | 69 | 1013.6 |
| 20260831171216 | 25 | 260 | 3.2 | 6.4 | 0.00 | 0.00 | 0.00 | 70 | 1013.5 |
| 20260831170716 | 26 | 148 | 4.8 | 6.4 | 0.00 | 0.00 | 0.00 | 69 | 1013.6 |
| 20260831170236 | 25 | 0.0 | 3.2 | 0.00 | 0.00 | 0.00 | 71 | 1013.6 | |
| 20260831165716 | 25 | 148 | 1.6 | 3.2 | 0.00 | 0.00 | 0.00 | 73 | 1013.5 |
| 20260831165216 | 25 | 283 | 1.6 | 4.8 | 0.00 | 0.00 | 0.00 | 73 | 1013.4 |
| 20260831164716 | 25 | 0.0 | 3.2 | 0.00 | 0.00 | 0.00 | 73 | 1013.5 | |
| 20260831164236 | 24 | 260 | 3.2 | 6.4 | 0.00 | 0.00 | 0.00 | 75 | 1013.4 |
| 20260831163716 | 24 | 305 | 3.2 | 4.8 | 0.00 | 0.00 | 0.00 | 74 | 1013.3 |
| 20260831163216 | 24 | 0.0 | 3.2 | 0.00 | 0.00 | 0.00 | 75 | 1013.3 | |
| 20260831162716 | 24 | 0.0 | 1.6 | 0.00 | 0.00 | 0.00 | 75 | 1013.3 | |
| 20260831162216 | 24 | 260 | 4.8 | 8.0 | 0.00 | 0.00 | 0.00 | 75 | 1013.3 |
| 20260831161736 | 23 | 0.0 | 0.0 | 0.00 | 0.00 | 0.00 | 77 | 1013.3 | |
| 20260831161216 | 23 | 0.0 | 1.6 | 0.00 | 0.00 | 0.00 | 78 | 1013.3 | |
| 20260831160716 | 23 | 125 | 3.2 | 4.8 | 0.00 | 0.00 | 0.00 | 77 | 1013.3 |
| 20260831160216 | 23 | 0.0 | 1.6 | 0.00 | 0.00 | 0.00 | 79 | 1013.3 | |
| 20260831155756 | 23 | 103 | 3.2 | 8.0 | 0.00 | 0.00 | 0.00 | 79 | 1013.4 |
| 20260831155216 | 23 | 125 | 4.8 | 8.0 | 0.00 | 0.00 | 0.00 | 79 | 1013.3 |
| 20260831154716 | 23 | 125 | 6.4 | 9.7 | 0.00 | 0.00 | 0.00 | 79 | 1013.3 |
| 20260831154216 | 23 | 0.0 | 0.0 | 0.00 | 0.00 | 0.00 | 80 | 1013.2 | |
| 20260831153716 | 22 | 13 | 1.6 | 3.2 | 0.00 | 0.00 | 0.00 | 81 | 1013.2 |
| 20260831153216 | 22 | 238 | 1.6 | 3.2 | 0.00 | 0.00 | 0.00 | 81 | 1013.2 |
| 20260831152716 | 22 | 0.0 | 0.0 | 0.00 | 0.00 | 0.00 | 82 | 1013.2 | |
| 20260831152236 | 22 | 0.0 | 1.6 | 0.00 | 0.00 | 0.00 | 82 | 1013.2 | |
| 20260831151736 | 22 | 283 | 1.6 | 1.6 | 0.00 | 0.00 | 0.00 | 83 | 1013.1 |
| 20260831151216 | 22 | 0.0 | 0.0 | 0.00 | 0.00 | 0.00 | 84 | 1013.2 | |
| 20260831150715 | 21 | 0.0 | 0.0 | 0.00 | 0.00 | 0.00 | 84 | 1013.1 | |
| 20260831150216 | 21 | 0.0 | 0.0 | 0.00 | 0.00 | 0.00 | 85 | 1013.1 | |
| 20260831145736 | 21 | 0.0 | 0.0 | 0.00 | 0.00 | 0.00 | 85 | 1013.0 | |
| 20260831145216 | 21 | 0.0 | 0.0 | 0.00 | 0.00 | 0.00 | 86 | 1013.0 | |
| 20260831144716 | 21 | 0.0 | 1.6 | 0.00 | 0.00 | 0.00 | 86 | 1013.0 | |
| 20260831144256 | 20 | 0.0 | 1.6 | 0.00 | 0.00 | 0.00 | 87 | 1013.0 | |
| 20260831143715 | 20 | 260 | 1.6 | 1.6 | 0.00 | 0.00 | 0.00 | 88 | 1012.9 |
| 20260831143215 | 20 | 0.0 | 0.0 | 0.00 | 0.00 | 0.00 | 88 | 1012.8 | |
| 20260831142715 | 20 | 0.0 | 0.0 | 0.00 | 0.00 | 0.00 | 89 | 1012.7 | |
| 20260831142216 | 20 | 0.0 | 0.0 | 0.00 | 0.00 | 0.00 | 89 | 1012.7 | |
| 20260831141716 | 19 | 0.0 | 0.0 | 0.00 | 0.00 | 0.00 | 90 | 1012.6 | |
| 20260831141216 | 19 | 0.0 | 0.0 | 0.00 | 0.00 | 0.00 | 90 | 1012.5 | |
| 20260831140715 | 19 | 0.0 | 0.0 | 0.00 | 0.00 | 0.00 | 89 | 1012.4 | |
| 20260831140215 | 18 | 0.0 | 0.0 | 0.00 | 0.00 | 0.00 | 89 | 1012.4 | |
| 20260831135715 | 18 | 0.0 | 0.0 | 0.00 | 0.00 | 0.00 | 89 | 1012.3 | |
| 20260831135216 | 18 | 0.0 | 0.0 | 0.00 | 0.00 | 0.00 | 88 | 1012.3 | |
| 20260831134936 | 18 | 0.0 | 0.0 | 0.00 | 0.00 | 0.00 | 89 | 1012.2 | |
| 20260831134416 | 18 | 0.0 | 0.0 | 0.00 | 0.00 | 0.00 | 88 | 1012.1 | |
| 20260831133936 | 18 | 0.0 | 0.0 | 0.00 | 0.00 | 0.00 | 88 | 1012.1 | |
| 20260831133415 | 18 | 0.0 | 0.0 | 0.00 | 0.00 | 0.00 | 87 | 1012.1 | |
| 20260831132936 | 18 | 0.0 | 0.0 | 0.00 | 0.00 | 0.00 | 87 | 1012.0 | |
| 20260831132436 | 18 | 0.0 | 0.0 | 0.00 | 0.00 | 0.00 | 87 | 1012.0 | |
| 20260831131916 | 18 | 0.0 | 0.0 | 0.00 | 0.00 | 0.00 | 86 | 1011.9 | |
| 20260831131416 | 18 | 0.0 | 0.0 | 0.00 | 0.00 | 0.00 | 84 | 1011.9 | |
| 20260831130936 | 19 | 0.0 | 0.0 | 0.00 | 0.00 | 0.00 | 85 | 1011.8 | |
| 20260831130415 | 19 | 0.0 | 0.0 | 0.00 | 0.00 | 0.00 | 84 | 1011.9 | |
| 20260831125915 | 19 | 0.0 | 0.0 | 0.00 | 0.00 | 0.00 | 85 | 1011.9 | |
| 20260831125415 | 19 | 0.0 | 0.0 | 0.00 | 0.00 | 0.00 | 85 | 1011.8 | |
| 20260831124915 | 19 | 0.0 | 0.0 | 0.00 | 0.00 | 0.00 | 85 | 1011.8 | |
| 20260831124415 | 19 | 0.0 | 0.0 | 0.00 | 0.00 | 0.00 | 84 | 1011.9 | |
| 20260831123916 | 19 | 0.0 | 0.0 | 0.00 | 0.00 | 0.00 | 84 | 1011.9 | |
| 20260831123415 | 19 | 0.0 | 0.0 | 0.00 | 0.00 | 0.00 | 84 | 1011.8 | |
| 20260831122915 | 19 | 0.0 | 0.0 | 0.00 | 0.00 | 0.00 | 85 | 1011.8 | |
| 20260831122416 | 19 | 0.0 | 0.0 | 0.00 | 0.00 | 0.00 | 85 | 1011.8 | |
| 20260831121935 | 18 | 0.0 | 0.0 | 0.00 | 0.00 | 0.00 | 85 | 1011.8 | |
| 20260831121416 | 18 | 0.0 | 0.0 | 0.00 | 0.00 | 0.00 | 83 | 1011.8 | |
| 20260831120935 | 19 | 0.0 | 0.0 | 0.00 | 0.00 | 0.00 | 83 | 1011.8 | |
| 20260831120415 | 19 | 0.0 | 0.0 | 0.00 | 0.00 | 0.00 | 83 | 1011.7 | |
| 20260831115916 | 19 | 0.0 | 0.0 | 0.00 | 0.00 | 0.00 | 82 | 1011.7 | |
| 20260831115415 | 19 | 0.0 | 0.0 | 0.00 | 0.00 | 0.00 | 83 | 1011.8 | |
| 20260831114915 | 19 | 0.0 | 0.0 | 0.00 | 0.00 | 0.00 | 82 | 1011.8 | |
| 20260831114415 | 19 | 0.0 | 0.0 | 0.00 | 0.00 | 0.00 | 82 | 1011.8 | |
| 20260831113915 | 19 | 0.0 | 0.0 | 0.00 | 0.00 | 0.00 | 83 | 1011.8 | |
| 20260831113416 | 19 | 0.0 | 0.0 | 0.00 | 0.00 | 0.00 | 83 | 1011.8 | |
| 20260831112915 | 19 | 0.0 | 0.0 | 0.00 | 0.00 | 0.00 | 83 | 1011.9 | |
| 20260831112415 | 19 | 0.0 | 0.0 | 0.00 | 0.00 | 0.00 | 82 | 1011.9 | |
| 20260831111915 | 19 | 0.0 | 0.0 | 0.00 | 0.00 | 0.00 | 82 | 1011.8 | |
| 20260831111415 | 19 | 0.0 | 0.0 | 0.00 | 0.00 | 0.00 | 81 | 1011.8 | |
| 20260831110915 | 20 | 0.0 | 0.0 | 0.00 | 0.00 | 0.00 | 81 | 1011.8 | |
| 20260831110415 | 20 | 0.0 | 0.0 | 0.00 | 0.00 | 0.00 | 81 | 1011.9 | |
| 20260831105915 | 20 | 0.0 | 0.0 | 0.00 | 0.00 | 0.00 | 81 | 1011.8 | |
| 20260831105415 | 20 | 0.0 | 0.0 | 0.00 | 0.00 | 0.00 | 82 | 1011.8 | |
| 20260831104915 | 20 | 0.0 | 0.0 | 0.00 | 0.00 | 0.00 | 82 | 1011.8 | |
| 20260831104415 | 20 | 0.0 | 0.0 | 0.00 | 0.00 | 0.00 | 83 | 1011.9 | |
| 20260831103915 | 20 | 0.0 | 0.0 | 0.00 | 0.00 | 0.00 | 83 | 1011.9 | |
| 20260831103415 | 20 | 0.0 | 0.0 | 0.00 | 0.00 | 0.00 | 84 | 1011.9 | |
| 20260831102915 | 20 | 0.0 | 0.0 | 0.00 | 0.00 | 0.00 | 84 | 1011.9 | |
| 20260831102415 | 20 | 0.0 | 0.0 | 0.00 | 0.00 | 0.00 | 85 | 1011.9 | |
| 20260831101915 | 20 | 0.0 | 0.0 | 0.00 | 0.00 | 0.00 | 86 | 1012.0 | |
| 20260831101455 | 20 | 0.0 | 0.0 | 0.00 | 0.00 | 0.00 | 87 | 1011.9 | |
| 20260831100915 | 20 | 0.0 | 0.0 | 0.00 | 0.00 | 0.00 | 88 | 1011.9 | |
| 20260831100415 | 20 | 0.0 | 0.0 | 0.00 | 0.00 | 0.00 | 88 | 1011.9 | |
| 20260831095915 | 19 | 0.0 | 0.0 | 0.00 | 0.00 | 0.00 | 88 | 1011.9 | |
| 20260831095415 | 19 | 0.0 | 0.0 | 0.00 | 0.00 | 0.00 | 87 | 1011.9 | |
| 20260831094915 | 20 | 0.0 | 0.0 | 0.00 | 0.00 | 0.00 | 86 | 1011.9 | |
| 20260831094415 | 20 | 0.0 | 0.0 | 0.00 | 0.00 | 0.00 | 86 | 1011.9 | |
| 20260831093915 | 20 | 0.0 | 0.0 | 0.00 | 0.00 | 0.00 | 86 | 1011.9 | |
| 20260831093415 | 20 | 0.0 | 0.0 | 0.00 | 0.00 | 0.00 | 86 | 1011.9 | |
| 20260831092917 | 20 | 0.0 | 0.0 | 0.00 | 0.00 | 0.00 | 86 | 1011.9 | |
| 20260831092417 | 20 | 0.0 | 0.0 | 0.00 | 0.00 | 0.00 | 86 | 1011.8 | |
| 20260831091917 | 20 | 0.0 | 0.0 | 0.00 | 0.00 | 0.00 | 85 | 1011.8 | |
| 20260831091415 | 20 | 0.0 | 0.0 | 0.00 | 0.00 | 0.00 | 86 | 1011.9 | |
| 20260831090917 | 20 | 0.0 | 0.0 | 0.00 | 0.00 | 0.00 | 86 | 1011.8 | |
| 20260831090417 | 20 | 0.0 | 0.0 | 0.00 | 0.00 | 0.00 | 86 | 1011.8 | |
| 20260831085917 | 20 | 0.0 | 0.0 | 0.00 | 0.00 | 0.00 | 85 | 1011.8 | |
| 20260831085415 | 20 | 0.0 | 0.0 | 0.00 | 0.00 | 0.00 | 85 | 1011.8 | |
| 20260831084917 | 20 | 0.0 | 0.0 | 0.00 | 0.00 | 0.00 | 85 | 1011.8 | |
| 20260831084417 | 20 | 0.0 | 0.0 | 0.00 | 0.00 | 0.00 | 85 | 1011.7 | |
| 20260831083917 | 20 | 0.0 | 0.0 | 0.00 | 0.00 | 0.00 | 85 | 1011.8 | |
| 20260831083417 | 20 | 0.0 | 0.0 | 0.00 | 0.00 | 0.00 | 84 | 1011.8 | |
| 20260831082917 | 20 | 0.0 | 0.0 | 0.00 | 0.00 | 0.00 | 83 | 1011.8 | |
| 20260831082417 | 20 | 0.0 | 0.0 | 0.00 | 0.00 | 0.00 | 83 | 1011.9 | |
| 20260831081917 | 21 | 0.0 | 0.0 | 0.00 | 0.00 | 0.00 | 83 | 1011.9 | |
| 20260831081417 | 21 | 0.0 | 0.0 | 0.00 | 0.00 | 0.00 | 83 | 1011.9 | |
| 20260831080937 | 21 | 0.0 | 0.0 | 0.00 | 0.00 | 0.00 | 83 | 1011.9 | |
| 20260831080417 | 21 | 0.0 | 0.0 | 0.00 | 0.00 | 0.00 | 83 | 1011.9 | |
| 20260831075937 | 21 | 0.0 | 0.0 | 0.00 | 0.00 | 0.00 | 83 | 1012.0 | |
| 20260831075417 | 21 | 0.0 | 0.0 | 0.00 | 0.00 | 0.00 | 83 | 1011.9 | |
| 20260831074917 | 21 | 0.0 | 0.0 | 0.00 | 0.00 | 0.00 | 82 | 1011.9 | |
| 20260831074437 | 21 | 0.0 | 0.0 | 0.00 | 0.00 | 0.00 | 83 | 1012.0 | |
| 20260831073917 | 21 | 0.0 | 0.0 | 0.00 | 0.00 | 0.00 | 84 | 1011.9 | |
| 20260831073417 | 21 | 0.0 | 0.0 | 0.00 | 0.00 | 0.00 | 83 | 1011.9 | |
| 20260831072917 | 21 | 0.0 | 0.0 | 0.00 | 0.00 | 0.00 | 85 | 1011.8 | |
| 20260831072417 | 21 | 0.0 | 0.0 | 0.00 | 0.00 | 0.00 | 85 | 1011.8 | |
| 20260831071917 | 21 | 0.0 | 0.0 | 0.00 | 0.00 | 0.00 | 85 | 1011.8 | |
| 20260831071437 | 21 | 0.0 | 0.0 | 0.00 | 0.00 | 0.00 | 84 | 1011.8 | |
| 20260831070917 | 21 | 0.0 | 0.0 | 0.00 | 0.00 | 0.00 | 84 | 1011.9 | |
| 20260831070437 | 21 | 0.0 | 0.0 | 0.00 | 0.00 | 0.00 | 83 | 1011.8 | |
| 20260831065415 | 21 | 0.0 | 0.0 | 0.00 | 0.00 | 0.00 | 83 | 1011.7 | |
| 20260831064936 | 21 | 0.0 | 0.0 | 0.00 | 0.00 | 0.00 | 83 | 1011.7 | |
| 20260831063935 | 21 | 0.0 | 0.0 | 0.00 | 0.00 | 0.00 | 83 | 1011.7 | |
| 20260831063416 | 21 | 0.0 | 0.0 | 0.00 | 0.00 | 0.00 | 83 | 1011.6 | |
| 20260831062915 | 21 | 0.0 | 0.0 | 0.00 | 0.00 | 0.00 | 82 | 1011.6 | |
| 20260831062415 | 21 | 0.0 | 0.0 | 0.00 | 0.00 | 0.00 | 82 | 1011.6 | |
| 20260831061915 | 21 | 0.0 | 0.0 | 0.00 | 0.00 | 0.00 | 82 | 1011.5 | |
| 20260831061415 | 21 | 0.0 | 0.0 | 0.00 | 0.00 | 0.00 | 82 | 1011.5 | |
| 20260831060915 | 21 | 0.0 | 0.0 | 0.00 | 0.00 | 0.00 | 82 | 1011.5 | |
| 20260831060415 | 21 | 0.0 | 0.0 | 0.00 | 0.00 | 0.00 | 82 | 1011.6 | |
| 20260831055915 | 21 | 0.0 | 0.0 | 0.00 | 0.00 | 0.00 | 82 | 1011.6 | |
| 20260831055415 | 21 | 0.0 | 0.0 | 0.00 | 0.00 | 0.00 | 82 | 1011.7 | |
| 20260831054935 | 21 | 0.0 | 0.0 | 0.00 | 0.00 | 0.00 | 82 | 1011.7 | |
| 20260831054435 | 21 | 0.0 | 0.0 | 0.00 | 0.00 | 0.00 | 82 | 1011.6 | |
| 20260831053915 | 22 | 0.0 | 0.0 | 0.00 | 0.00 | 0.00 | 81 | 1011.6 | |
| 20260831053415 | 22 | 0.0 | 0.0 | 0.00 | 0.00 | 0.00 | 81 | 1011.6 | |
| 20260831052915 | 22 | 0.0 | 0.0 | 0.00 | 0.00 | 0.00 | 81 | 1011.6 | |
| 20260831052415 | 22 | 0.0 | 0.0 | 0.00 | 0.00 | 0.00 | 80 | 1011.6 | |
| 20260831051915 | 22 | 0.0 | 0.0 | 0.00 | 0.00 | 0.00 | 80 | 1011.6 | |
| 20260831051415 | 22 | 283 | 1.6 | 3.2 | 0.00 | 0.00 | 0.00 | 80 | 1011.5 |
| 20260831050915 | 22 | 283 | 3.2 | 3.2 | 0.00 | 0.00 | 0.00 | 79 | 1011.6 |
| 20260831050435 | 22 | 0.0 | 3.2 | 0.00 | 0.00 | 0.00 | 78 | 1011.6 | |
| 20260831045915 | 22 | 260 | 1.6 | 3.2 | 0.00 | 0.00 | 0.00 | 77 | 1011.8 |
| 20260831045415 | 22 | 0.0 | 0.0 | 0.00 | 0.00 | 0.00 | 76 | 1011.8 | |
| 20260831044935 | 22 | 283 | 1.6 | 1.6 | 0.00 | 0.00 | 0.00 | 76 | 1011.7 |
| 20260831044415 | 22 | 0.0 | 1.6 | 0.00 | 0.00 | 0.00 | 75 | 1011.6 | |
| 20260831043937 | 22 | 305 | 3.2 | 4.8 | 0.00 | 0.00 | 0.00 | 74 | 1011.5 |
| 20260831043417 | 22 | 260 | 4.8 | 6.4 | 0.00 | 0.00 | 0.00 | 73 | 1011.5 |
| 20260831042955 | 22 | 305 | 1.6 | 4.8 | 0.00 | 0.00 | 0.00 | 73 | 1011.4 |
| 20260831042538 | 22 | 283 | 8.0 | 9.7 | 0.00 | 0.00 | 0.00 | 72 | 1011.5 |
| 20260831041917 | 22 | 283 | 4.8 | 8.0 | 0.00 | 0.00 | 0.00 | 72 | 1011.4 |
| 20260831041417 | 22 | 260 | 3.2 | 8.0 | 0.00 | 0.00 | 0.00 | 72 | 1011.3 |
| 20260831040917 | 22 | 283 | 3.2 | 9.7 | 0.00 | 0.00 | 0.00 | 71 | 1011.3 |
| 20260831040417 | 22 | 260 | 1.6 | 3.2 | 0.00 | 0.00 | 0.00 | 71 | 1011.2 |
| 20260831035917 | 22 | 260 | 3.2 | 8.0 | 0.00 | 0.00 | 0.00 | 71 | 1011.1 |
| 20260831035417 | 22 | 283 | 1.6 | 3.2 | 0.00 | 0.00 | 0.00 | 70 | 1011.1 |
| 20260831034917 | 22 | 283 | 4.8 | 8.0 | 0.00 | 0.00 | 0.00 | 70 | 1010.9 |
| 20260831034417 | 22 | 260 | 1.6 | 4.8 | 0.00 | 0.00 | 0.00 | 70 | 1010.8 |
| 20260831033917 | 22 | 260 | 6.4 | 8.0 | 0.00 | 0.00 | 0.00 | 69 | 1010.8 |
| 20260831033417 | 22 | 283 | 8.0 | 11.3 | 0.00 | 0.00 | 0.00 | 69 | 1010.6 |
| 20260831032935 | 22 | 305 | 6.4 | 12.9 | 0.00 | 0.00 | 0.00 | 69 | 1010.6 |
| 20260831032417 | 22 | 305 | 6.4 | 11.3 | 0.00 | 0.00 | 0.00 | 69 | 1010.5 |
| 20260831031917 | 22 | 283 | 8.0 | 11.3 | 0.00 | 0.00 | 0.00 | 69 | 1010.4 |
| 20260831031437 | 23 | 305 | 6.4 | 11.3 | 0.00 | 0.00 | 0.00 | 70 | 1010.4 |
| 20260831030917 | 23 | 283 | 3.2 | 6.4 | 0.00 | 0.00 | 0.00 | 71 | 1010.3 |